Miscellaneous Local Product
Issued by NWS Hastings, NE

Home | Current Version | Previous Version | Graphics & Text | Print | Product List | Glossary On
Versions: 1 2 3 4 5 6 7 8 9 10 11 12 13 14 15 16 17 18 19 20 21 22 23 24 25 26 27 28 29 30 31 32 33 34 35 36 37 38 39 40 41 42 43 44 45 46 47 48 49 50
156
AXUS43 KGID 190802
MISGRI

GID CWA HOURLY WEATHER ROUNDUP
NATIONAL WEATHER SERVICE HASTINGS NE
200 AM CST THU JAN 19 2017

NOTE: "FAIR" INDICATES FEW OR NO CLOUDS BELOW 12,000 FEET WITH NO
SIGNIFICANT WEATHER AND/OR OBSTRUCTIONS TO VISIBILITY.

...SOUTH CENTRAL NEBRASKA...

CITY           SKY/WX    TMP DP  RH WIND       PRES   REMARKS
GRAND ISLAND   CLEAR     35  34  96 S13       29.76F WCI  26
HASTINGS       CLEAR     36  33  89 S8        29.76F WCI  30
KEARNEY        PTCLDY    36  32  87 S7        29.74S WCI  30
ORD            CLEAR     33  32  96 SE3       29.71F
YORK           PTCLDY    37  36  93 S9        29.79S WCI  31
AURORA         CLEAR     37  35  93 S8        29.77F WCI  30
LEXINGTON      CLOUDY    37  36  95 SE8       29.71S FOG     WCI  31
HOLDREGE       CLOUDY    37  36  94 SE7       29.72S FOG     WCI  32
HEBRON         CLEAR     38  35  89 S8        29.80F WCI  32

...NEBRASKA PANHANDLE...

CITY           SKY/WX    TMP DP  RH WIND       PRES   REMARKS
CHADRON        CLOUDY    25  18  74 W9        29.64S WCI  15
ALLIANCE       CLOUDY    19  15  84 SW6       29.62F WCI  11
SCOTTSBLUFF    CLOUDY    27  19  72 N7        29.64S WCI  19
SIDNEY         CLOUDY    24  20  84 NW8       29.65F WCI  15

...WESTERN AND NORTH CENTRAL NEBRASKA...

CITY           SKY/WX    TMP DP  RH WIND       PRES   REMARKS
VALENTINE      CLOUDY    32  25  75 SW13      29.64R WCI  22
AINSWORTH      CLEAR     34  33  96 S12       29.64F WCI  25
ONEILL         CLEAR     35  34  98 S6        29.69F WCI  30
BROKEN BOW     CLEAR     35  34  96 CALM      29.69F FOG
IMPERIAL       CLOUDY    27  24  89 W5        29.67F FOG     WCI  22
NORTH PLATTE   FOG       28  27  96 SE6       29.69S VSB 1/4 WCI  22
MCCOOK         FOG       30  30 100 NE3       29.69F VSB<1/4

...EASTERN NEBRASKA...

CITY           SKY/WX    TMP DP  RH WIND       PRES   REMARKS
NORFOLK        CLEAR     37  33  85 S13       29.76S WCI  29
SO SIOUX CITY  CLEAR     34  32  92 SE12      29.81F WCI  25
TEKAMAH        CLEAR     34  32  92 SE9       29.83F WCI  27
COLUMBUS       CLEAR     36  32  87 SE5       29.79F WCI  32
ALBION         PTCLDY    36  33  90 S7        29.75F WCI  30
OMAHA EPPLEY   PTCLDY    36  31  82 S12       29.86S WCI  28
OFFUTT AFB     CLEAR     34  34 100 E6        29.85F WCI  29
MILLARD        CLEAR     38  34  87 SE5       29.85F WCI  34
LINCOLN        CLEAR     35  32  88 S10       29.83F WCI  27
NEBRASKA CITY  PTCLDY    34  34 100 S12       29.86F FOG     WCI  25
BEATRICE       CLOUDY    37  34  88 SE7       29.83F WCI  32
FALLS CITY     CLOUDY    37  35  92 E3        29.88F

...NORTHERN KANSAS...

CITY           SKY/WX    TMP DP  RH WIND       PRES   REMARKS
GOODLAND       CLEAR     29  25  85 S3        29.65F
HILL CITY      CLOUDY    43  43 100 S8        29.72F
NORTON         CLOUDY    39  36  87 S8        29.70F WCI  34
PHILLIPSBURG   CLOUDY    41  41 100 SE7       29.75F
SMITH CENTER   CLOUDY    36  36 100 SE8       29.77F FOG     WCI  29
HAYS           CLOUDY    44  42  93 S9        29.75F
RUSSELL        CLOUDY    45  43  93 S15       29.74F
CONCORDIA      CLOUDY    39  37  92 SE6       29.80F WCI  35
SALINA           N/A    N/A N/A N/A MISG        N/A
TOPEKA         CLOUDY    41  37  86 NE5       29.89F



USA.gov is the U.S. government's official web portal to all federal, state and local government web resources and services.